[[{"header":{"parameterUnit":"m.s-1","parameterCategory":1,"la1":30.2991,"la2":30.254,"lo1":-89.0895,"lo2":-89.0444,"dy":0.0017,"dx":0.0017,"nx":28,"ny":28,"refTime":"2023-08-05T03:00:00:Z","depth":0,"parameterNumber":2,"parameterNumberName":"U-component_of_WINDS"},"data":[0,0,0,0,0,0,0,0,0,0,0,0,0,0,0,0,0,0,0,0,0,0,0,0,0,0,0,0,0,0,0,0,0,0,0,0,0,0,0,0,0,0,0,0,0,0,0,0,0,0,0,0,0,0,0,0,0,0,4.7347,4.7348,0,4.7512,4.7514,4.7516,4.7496,4.7493,4.7491,4.7488,4.7656,4.7663,4.7669,0,0,0,0,0,0,0,0,0,0,0,0,0,4.7012,4.7019,4.7347,4.7349,4.7351,4.7512,4.7514,4.7516,4.7496,4.7493,4.749,4.7487,4.7654,4.7662,4.767,0,0,0,0,0,0,0,0,0,0,0,0,0,4.7166,4.7021,4.7346,4.736,4.7363,4.7511,4.7514,4.7517,4.7497,4.7493,4.7489,4.7485,4.7651,4.7661,4.7671,4.7816,0,0,4.7703,4.7708,0,0,0,0,0,0,0,0,4.7157,4.7178,4.7356,4.7359,4.7363,4.7479,4.7458,4.7617,4.7498,4.7446,4.7488,4.7483,4.76,4.7615,4.7654,4.7824,4.7831,4.7704,4.771,4.7715,4.7718,0,0,0,0,0,0,0,4.7146,4.7171,4.7412,4.7359,4.7363,4.7358,4.7375,4.7488,4.7544,4.745,4.7449,4.7469,4.7601,4.7644,4.7658,4.7833,4.7704,4.7713,4.7719,4.7724,4.8131,4.8135,0,0,0,0,0,0,4.7132,4.7162,4.7407,4.7417,4.7248,4.7367,4.7387,4.7446,4.7542,4.7553,4.7473,4.7468,4.7628,4.7646,4.7664,4.784,4.7715,4.7725,4.7731,4.8126,4.8132,4.8137,0,0,0,0,0,0,4.7125,4.7154,4.74,4.7289,4.732,4.7377,4.7444,4.7451,4.7494,4.7559,4.7569,4.7506,4.7626,4.7649,4.7779,4.7846,4.7729,4.7739,4.8121,4.8128,4.8134,4.8193,0,0,0,0,0,0,4.7116,4.7152,4.7207,4.7291,4.7326,4.7512,4.7448,4.7458,4.7513,4.7508,4.7593,4.7604,4.7625,4.7763,4.7789,4.7858,4.7747,4.8115,4.8124,4.8132,4.8186,4.8201,4.8215,0,0,0,0,0,4.7104,4.7217,4.721,4.724,4.7397,4.7516,4.7536,4.7559,4.7518,4.7574,4.7616,4.7601,4.7834,4.7777,4.7805,4.7879,4.8111,4.8122,4.8131,4.8179,4.8198,4.8214,0,0,0,0,0,0,4.7139,4.7228,4.7222,4.7365,4.7433,4.7513,4.7584,4.7578,4.7659,4.7651,4.7675,4.7695,4.7825,4.7865,4.7799,4.8024,4.7967,4.7984,4.7993,4.8012,4.8026,4.8014,4.7756,0,0,0,0,0,4.7164,4.7253,4.7326,4.7446,4.748,4.7527,4.7579,4.7591,4.7662,4.7691,4.7742,4.7811,4.7901,4.7959,4.8044,4.8192,4.821,4.8256,4.8271,4.8282,4.8296,4.8378,4.84,4.817,4.817,4.817,0,0,4.7215,4.7275,4.733,4.7454,4.7508,4.7601,4.7551,4.765,4.7719,4.7706,4.7831,4.7871,4.7951,4.809,4.8154,4.8127,4.8364,4.8296,4.8304,4.8312,4.8391,4.8412,4.8432,4.8177,4.8176,4.8175,0,0,4.7355,4.741,4.7516,4.7572,4.7655,4.7685,4.7711,4.7792,4.7818,4.7945,4.7937,4.8019,4.8172,4.8229,4.8278,4.8442,4.8431,4.847,4.8545,4.8625,4.8643,4.8659,4.8718,4.8739,4.8483,4.8483,4.8484,0,4.7408,4.7548,4.7571,4.7672,4.7727,4.7721,4.7828,4.7881,4.7988,4.8026,4.7995,4.8187,4.824,4.8393,4.8433,4.8473,4.8503,4.8459,4.8639,4.8655,4.867,4.8727,4.8749,4.8487,4.8487,4.8487,4.8486,0,4.7609,4.7706,4.7781,4.7886,4.795,4.8053,4.8092,4.8154,4.8161,4.8194,4.8324,4.8387,4.8486,4.8523,4.853,4.8678,4.8659,4.8633,4.8576,4.8696,4.8749,4.8771,4.8493,4.8492,4.8491,4.849,0,0,4.7775,4.7892,4.7919,4.7967,4.8059,4.8135,4.8239,4.8336,4.8389,4.8463,4.8551,4.8681,4.8658,4.8714,4.8728,4.8798,4.8924,4.8763,4.8765,4.8791,4.9092,4.911,4.9135,4.8918,4.8922,4.8926,4.9085,0,4.7925,4.8109,4.8134,4.8297,4.8387,4.8383,4.8473,4.854,4.8575,4.8656,4.8694,4.8786,4.8749,4.8783,4.8852,4.8894,4.8985,4.8883,4.9,4.9004,4.898,4.9163,4.9183,4.933,4.9106,4.911,4.9112,0,4.8124,4.8205,4.8377,4.8458,4.8497,4.8578,4.867,4.8748,4.8823,4.8844,4.8907,4.8912,4.902,4.8959,4.9108,4.9039,4.9088,4.9116,4.9123,4.9134,4.9065,4.9179,4.9377,4.9399,4.9145,4.9143,4.914,0,4.8228,4.838,4.8503,4.8544,4.8642,4.8699,4.8742,4.8814,4.8871,4.8952,4.8989,4.9081,4.9131,4.9202,4.9232,4.9185,4.9379,4.9321,4.9399,4.9399,4.944,4.9436,4.9648,4.9472,4.9472,4.9471,4.9471,0,4.8392,4.8498,4.8551,4.8627,4.8746,4.8773,4.8889,4.8931,4.8995,4.9078,4.908,4.9159,4.9194,4.9278,4.9302,4.9422,4.9444,4.9464,4.9469,4.9464,4.9461,4.9496,4.9486,4.9477,4.9476,4.9475,4.9474,0,4.8528,4.8568,4.8702,4.8784,4.8807,4.8891,4.8961,4.9035,4.9069,4.9175,4.9201,4.9256,4.9355,4.9392,4.9512,4.9529,4.9668,4.9664,4.9642,4.9643,4.972,4.9712,4.9961,4.9995,4.9796,4.9798,4.98,0,4.863,4.8712,4.8803,4.8859,4.8905,4.8996,4.9055,4.9085,4.9147,4.924,4.9302,4.9401,4.9482,4.9641,4.9691,4.9783,4.9782,4.9863,4.9796,4.9788,4.9783,4.9778,4.9786,4.9875,4.9877,4.9879,4.988,0,4.8807,4.8824,4.8909,4.9002,4.9073,4.9147,4.9219,4.9265,4.9307,4.9376,4.9478,4.954,4.9664,4.9763,4.9858,4.9902,4.9899,4.9901,4.9924,4.9919,4.9903,4.9913,4.9676,4.9895,4.9893,4.9892,4.9892,4.9891,4.893,4.9002,4.9078,4.9173,4.9231,4.9299,4.9373,4.9417,4.9503,4.9606,4.9619,4.9728,4.9803,4.9931,4.998,5.0066,5.0044,5.0077,5.0085,5.0093,5.0099,4.989,5.0083,5.0083,5.0082,5.0082,5.0082,0,4.9107,4.9156,4.9243,4.9345,4.942,4.9411,4.9491,4.9554,4.9651,4.9721,4.9801,4.9919,5.0014,5.0073,5.0169,5.0227,5.0227,5.0251,5.0247,5.0257,5.0113,5.0083,5.0249,5.0249,5.0249,5.0249,5.0249,5.0248,4.9208,4.933,4.9356,4.9507,4.9556,4.9663,4.971,4.9773,4.9829,4.996,5.004,5.0078,5.0143,5.0245,5.0332,5.0347,5.0382,5.0408,5.0421,5.0284,5.0267,5.0251,5.0223,5.0415,5.0415,5.0558,5.0559,5.056]},{"header":{"parameterUnit":"m.s-1","parameterCategory":1,"la1":30.2991,"la2":30.254,"lo1":-89.0895,"lo2":-89.0444,"dy":0.0017,"dx":0.0017,"nx":28,"ny":28,"refTime":"2023-08-05T03:00:00:Z","depth":0,"parameterNumber":3,"parameterNumberName":"V-component_of_WINDS"},"data":[0,0,0,0,0,0,0,0,0,0,0,0,0,0,0,0,0,0,0,0,0,0,0,0,0,0,0,0,0,0,0,0,0,0,0,0,0,0,0,0,0,0,0,0,0,0,0,0,0,0,0,0,0,0,0,0,0,0,-2.1301,-2.1302,0,-2.1393,-2.1394,-2.1395,-2.1397,-2.1396,-2.1395,-2.1394,-2.1485,-2.1488,-2.1492,0,0,0,0,0,0,0,0,0,0,0,0,0,-2.1124,-2.1128,-2.1301,-2.1302,-2.1303,-2.1393,-2.1394,-2.1395,-2.1397,-2.1396,-2.1395,-2.1393,-2.1484,-2.1488,-2.1492,0,0,0,0,0,0,0,0,0,0,0,0,0,-2.1207,-2.1129,-2.1301,-2.1315,-2.1317,-2.1393,-2.1394,-2.1396,-2.1398,-2.1396,-2.1394,-2.1393,-2.1483,-2.1488,-2.1493,-2.1559,0,0,-2.1509,-2.1511,0,0,0,0,0,0,0,0,-2.1202,-2.1214,-2.1312,-2.1314,-2.1317,-2.1382,-2.1365,-2.145,-2.1398,-2.1367,-2.1394,-2.1392,-2.1452,-2.146,-2.148,-2.1563,-2.1567,-2.1509,-2.1512,-2.1515,-2.1516,0,0,0,0,0,0,0,-2.1197,-2.121,-2.1337,-2.1313,-2.1316,-2.1316,-2.1326,-2.1382,-2.1418,-2.137,-2.137,-2.1381,-2.1453,-2.1475,-2.1483,-2.1569,-2.1509,-2.1514,-2.1517,-2.1519,-2.1711,-2.1713,0,0,0,0,0,0,-2.1188,-2.1205,-2.1334,-2.134,-2.1254,-2.1321,-2.1332,-2.1363,-2.1417,-2.1424,-2.1382,-2.1381,-2.1467,-2.1477,-2.1486,-2.1567,-2.1515,-2.152,-2.1523,-2.1709,-2.1711,-2.1713,0,0,0,0,0,0,-2.1185,-2.12,-2.1331,-2.1273,-2.1289,-2.1326,-2.136,-2.1365,-2.1388,-2.1427,-2.1433,-2.1399,-2.1466,-2.1478,-2.1541,-2.157,-2.1522,-2.1527,-2.1706,-2.171,-2.1712,-2.173,0,0,0,0,0,0,-2.118,-2.1199,-2.1225,-2.1273,-2.1292,-2.1385,-2.1362,-2.1368,-2.1397,-2.1396,-2.1444,-2.145,-2.1466,-2.1533,-2.1546,-2.1577,-2.1531,-2.1704,-2.1708,-2.1711,-2.1727,-2.1733,-2.1739,0,0,0,0,0,-2.1173,-2.1225,-2.1226,-2.1242,-2.1326,-2.1387,-2.1398,-2.1416,-2.14,-2.1426,-2.1451,-2.1449,-2.1565,-2.154,-2.1554,-2.1587,-2.1702,-2.1707,-2.1711,-2.1724,-2.1732,-2.1738,0,0,0,0,0,0,-2.1178,-2.1232,-2.1233,-2.1303,-2.134,-2.1387,-2.1421,-2.1423,-2.1465,-2.1462,-2.1481,-2.1492,-2.1555,-2.1577,-2.1548,-2.1654,-2.1632,-2.1639,-2.1637,-2.1644,-2.165,-2.1643,-2.1535,0,0,0,0,0,-2.1188,-2.1233,-2.1278,-2.1335,-2.1354,-2.1384,-2.1411,-2.1422,-2.1461,-2.1477,-2.1506,-2.1544,-2.1589,-2.1618,-2.1661,-2.1731,-2.1741,-2.176,-2.1766,-2.177,-2.1776,-2.1814,-2.1823,-2.1728,-2.1728,-2.1728,0,0,-2.1207,-2.1242,-2.1269,-2.1336,-2.1367,-2.1413,-2.1397,-2.1447,-2.1481,-2.1484,-2.1545,-2.1568,-2.1611,-2.1677,-2.1708,-2.1698,-2.1805,-2.1776,-2.1779,-2.1783,-2.182,-2.1829,-2.1837,-2.1731,-2.173,-2.173,0,0,-2.1266,-2.1297,-2.1348,-2.1379,-2.1426,-2.1446,-2.1458,-2.1505,-2.1521,-2.1583,-2.1586,-2.1627,-2.1704,-2.1735,-2.176,-2.1832,-2.1831,-2.1845,-2.1875,-2.1912,-2.1919,-2.1926,-2.1951,-2.196,-2.1851,-2.1851,-2.1851,0,-2.1283,-2.1354,-2.1374,-2.1424,-2.1453,-2.1459,-2.1511,-2.1539,-2.1597,-2.1617,-2.1605,-2.1703,-2.1732,-2.1806,-2.1823,-2.1844,-2.1858,-2.1839,-2.1917,-2.1924,-2.193,-2.1955,-2.1964,-2.1853,-2.1853,-2.1852,-2.1852,0,-2.1374,-2.1423,-2.1458,-2.1515,-2.1549,-2.1599,-2.1626,-2.1657,-2.1665,-2.1686,-2.1749,-2.1785,-2.1836,-2.1854,-2.1862,-2.1929,-2.1921,-2.1913,-2.1891,-2.1941,-2.1964,-2.1973,-2.1855,-2.1854,-2.1854,-2.1853,0,0,-2.1437,-2.1505,-2.1518,-2.1544,-2.1597,-2.1634,-2.1685,-2.1736,-2.1762,-2.1802,-2.1845,-2.1911,-2.1904,-2.1933,-2.1944,-2.1977,-2.2031,-2.1965,-2.1966,-2.1975,-2.2106,-2.2111,-2.2122,-2.2031,-2.2033,-2.2034,-2.2102,0,-2.1501,-2.1592,-2.1612,-2.169,-2.1735,-2.1742,-2.1786,-2.1823,-2.1844,-2.1885,-2.1908,-2.1954,-2.1942,-2.196,-2.1992,-2.2017,-2.2057,-2.2013,-2.207,-2.2071,-2.2058,-2.2134,-2.2139,-2.2202,-2.2111,-2.2113,-2.2114,0,-2.1588,-2.1632,-2.1715,-2.1761,-2.1781,-2.1821,-2.1869,-2.1908,-2.195,-2.1963,-2.1996,-2.2004,-2.2056,-2.2033,-2.2104,-2.2074,-2.2098,-2.2114,-2.2117,-2.2122,-2.2095,-2.214,-2.2222,-2.2231,-2.2128,-2.2127,-2.2126,0,-2.1626,-2.1705,-2.1765,-2.1787,-2.1843,-2.1871,-2.1895,-2.1935,-2.1965,-2.2007,-2.2026,-2.2073,-2.2099,-2.2135,-2.2155,-2.2136,-2.2225,-2.2203,-2.2237,-2.2237,-2.2255,-2.2253,-2.2341,-2.2272,-2.2272,-2.2271,-2.2271,0,-2.1695,-2.1745,-2.1782,-2.1819,-2.1876,-2.1898,-2.1953,-2.1977,-2.2013,-2.2054,-2.2062,-2.21,-2.2126,-2.2167,-2.2183,-2.224,-2.2252,-2.2263,-2.2267,-2.2262,-2.2261,-2.2278,-2.2274,-2.2274,-2.2273,-2.2273,-2.2272,0,-2.1746,-2.1773,-2.1839,-2.1887,-2.19,-2.194,-2.1981,-2.2016,-2.2038,-2.209,-2.2103,-2.2137,-2.2187,-2.2211,-2.2272,-2.2283,-2.2347,-2.2348,-2.2333,-2.2335,-2.2367,-2.2363,-2.2468,-2.2482,-2.2404,-2.2405,-2.2405,0,-2.1788,-2.1827,-2.188,-2.1909,-2.1934,-2.198,-2.2011,-2.2034,-2.2065,-2.2116,-2.2145,-2.2195,-2.2236,-2.2315,-2.2344,-2.2391,-2.2393,-2.2426,-2.24,-2.2394,-2.2393,-2.239,-2.2394,-2.2431,-2.2431,-2.2432,-2.2433,0,-2.186,-2.1871,-2.1916,-2.1965,-2.2001,-2.2041,-2.208,-2.2102,-2.2132,-2.2166,-2.2218,-2.225,-2.2313,-2.2362,-2.2411,-2.2435,-2.2439,-2.2441,-2.2451,-2.2446,-2.2436,-2.2442,-2.2346,-2.2438,-2.2438,-2.2437,-2.2437,-2.2437,-2.1907,-2.1943,-2.1985,-2.2034,-2.2066,-2.2103,-2.2139,-2.2166,-2.2209,-2.2263,-2.2274,-2.2328,-2.2368,-2.2435,-2.2461,-2.2503,-2.2495,-2.251,-2.2514,-2.2517,-2.2518,-2.243,-2.2512,-2.2512,-2.2512,-2.2511,-2.2511,0,-2.1979,-2.2007,-2.2052,-2.2107,-2.2146,-2.2147,-2.219,-2.2222,-2.227,-2.2308,-2.2349,-2.2408,-2.2456,-2.2489,-2.2538,-2.2565,-2.2568,-2.2577,-2.2575,-2.258,-2.2522,-2.2509,-2.2574,-2.2574,-2.2574,-2.2574,-2.2574,-2.2574,-2.2021,-2.2081,-2.2098,-2.2173,-2.2201,-2.2255,-2.2279,-2.2313,-2.2343,-2.2409,-2.2449,-2.2471,-2.2507,-2.2559,-2.2603,-2.2612,-2.2629,-2.2638,-2.2646,-2.2591,-2.2585,-2.2578,-2.2565,-2.2642,-2.2642,-2.2701,-2.2701,-2.2702]}]]